CW2234 Weather Reports


Display with metric or nautical units.
time (UTC)temp
F
wind
direction
speed
MPH
gust
MPH
rain 1hr
in
rain 24hr
in
rain mn
in
humidity
%
barometer
mb
20260831174602 78 148 2.0 5.0 0.00 0.00 0.00 74 1013.8
20260831173058 77 126 1.0 5.0 0.00 0.00 0.00 76 1013.9
20260831171552 77 0 1.0 4.0 0.00 0.00 0.00 76 1013.9
20260831170110 77 109 1.0 5.0 0.00 0.00 0.00 76 1013.7
20260831164604 76 342 1.0 6.0 0.00 0.00 0.00 76 1013.6
20260831163105 75 342 3.0 6.0 0.00 0.00 0.00 78 1013.6
20260831161607 74 299 2.0 5.0 0.00 0.00 0.00 81 1013.6
20260831160135 74 322 2.0 8.0 0.00 0.00 0.00 82 1013.5
20260831154631 73 190 0.0 3.0 0.00 0.00 0.00 84 1013.5
20260831153133 72 185 0.0 2.0 0.00 0.00 0.00 84 1013.4
20260831151602 72 185 0.0 4.0 0.00 0.00 0.00 84 1013.3
20260831150055 72 152 0.0 2.0 0.00 0.00 0.00 85 1013.3
20260831144607 71 125 0.0 2.0 0.00 0.00 0.00 86 1013.1
20260831143102 70 125 1.0 2.0 0.00 0.00 0.00 87 1013.0
20260831141601 69 0 0.0 1.0 0.00 0.00 0.00 89 1012.8
20260831140056 69 0 0.0 2.0 0.00 0.00 0.00 90 1012.6
20260831134609 68 0 0.0 1.0 0.00 0.00 0.00 89 1012.5
20260831133103 68 0 0.0 3.0 0.00 0.00 0.00 89 1012.3
20260831131604 68 0 0.0 0.0 0.00 0.00 0.00 88 1012.3
20260831130137 69 0 0.0 1.0 0.00 0.00 0.00 88 1012.2
20260831124604 69 0 0.0 2.0 0.00 0.00 0.00 88 1012.2
20260831123106 69 0 0.0 2.0 0.00 0.00 0.00 88 1012.1
20260831121608 69 0 0.0 2.0 0.00 0.00 0.00 88 1012.1
20260831120146 69 0 0.0 2.0 0.00 0.00 0.00 88 1012.2
20260831114603 69 0 0.0 2.0 0.00 0.00 0.00 88 1012.0
20260831113102 69 136 0.0 2.0 0.00 0.00 0.00 88 1012.1
20260831111606 69 0 0.0 2.0 0.00 0.00 0.00 88 1012.1
20260831110107 69 137 0.0 2.0 0.00 0.00 0.00 88 1012.0
20260831104600 69 0 0.0 2.0 0.00 0.00 0.00 89 1012.1
20260831103104 69 0 0.0 3.0 0.00 0.00 0.00 88 1012.3
20260831101621 69 0 0.0 2.0 0.00 0.00 0.00 88 1012.2
20260831100107 69 0 0.0 2.0 0.00 0.00 0.00 87 1012.1
20260831094609 70 0 0.0 2.0 0.00 0.00 0.00 87 1012.1
20260831093101 70 0 0.0 1.0 0.00 0.00 0.00 86 1012.1
20260831091606 70 0 0.0 1.0 0.00 0.00 0.00 86 1012.1
20260831090119 70 0 0.0 2.0 0.00 0.00 0.00 86 1012.1
20260831084602 70 132 0.0 1.0 0.00 0.00 0.00 85 1012.0
20260831083058 70 0 0.0 0.0 0.00 0.00 0.00 83 1012.1
20260831081605 70 0 0.0 0.0 0.00 0.00 0.00 81 1012.1
20260831080100 70 0 0.0 0.0 0.00 0.00 0.00 79 1012.3
20260831074557 70 0 0.0 1.0 0.00 0.00 0.00 78 1012.2
20260831073109 70 0 0.0 1.0 0.00 0.00 0.00 79 1012.1
20260831071608 71 131 0.0 2.0 0.00 0.00 0.00 86 1012.0
20260831070134 71 0 0.0 2.0 0.00 0.00 0.00 87 1011.9
20260831064554 71 0 0.0 1.0 0.00 0.00 0.00 87 1011.9
20260831063052 71 132 0.0 2.0 0.00 0.00 0.00 88 1011.7
20260831061610 71 0 0.0 2.0 0.00 0.00 0.00 88 1011.6
20260831060111 72 0 0.0 1.0 0.00 0.00 0.00 88 1011.7
20260831054606 72 0 0.0 2.0 0.00 0.00 0.00 87 1011.5
20260831053106 72 0 0.0 3.0 0.00 0.00 0.00 87 1011.6
20260831051618 72 145 0.0 2.0 0.00 0.00 0.00 87 1011.6
20260831050106 72 148 0.0 3.0 0.00 0.00 0.00 86 1011.6
20260831044604 72 136 0.0 4.0 0.00 0.00 0.00 85 1011.6
20260831043108 73 183 1.0 6.0 0.00 0.00 0.00 85 1011.5
20260831041559 73 142 1.0 7.0 0.00 0.00 0.00 85 1011.3
20260831040106 73 136 0.0 2.0 0.00 0.00 0.00 84 1011.3
20260831034610 73 140 1.0 5.0 0.00 0.00 0.00 82 1011.1
20260831033103 73 148 0.0 3.0 0.00 0.00 0.00 80 1010.8
20260831031606 73 0 1.0 6.0 0.00 0.00 0.00 79 1010.7
20260831024616 73 0 1.0 7.0 0.00 0.00 0.00 74 1010.6
20260831023055 73 115 2.0 9.0 0.00 0.00 0.00 75 1010.4
20260831021605 74 134 1.0 7.0 0.00 0.00 0.00 76 1010.3
20260831020103 74 119 2.0 7.0 0.00 0.00 0.00 74 1010.2
20260831014602 75 150 1.0 4.0 0.00 0.00 0.00 77 1010.3
20260831013056 76 127 2.0 9.0 0.00 0.00 0.00 77 1010.3
20260831011604 76 128 2.0 7.0 0.00 0.00 0.00 78 1010.3
20260831010130 77 132 2.0 9.0 0.00 0.00 0.00 77 1010.5
20260831004613 78 205 1.0 10.0 0.00 0.00 0.00 77 1010.5
20260831003110 79 128 1.0 8.0 0.00 0.00 0.00 77 1010.4
20260831001609 80 171 3.0 10.0 0.00 0.00 0.00 76 1010.3
20260831000106 80 163 2.0 8.0 0.00 0.00 0.00 76 1010.2
20260830234605 81 145 3.0 10.0 0.00 0.00 0.00 75 1010.2
20260830233104 82 150 1.0 7.0 0.00 0.00 0.00 75 1010.2
20260830231600 82 152 1.0 7.0 0.00 0.00 0.00 74 1010.3
20260830230057 82 147 3.0 7.0 0.00 0.00 0.00 73 1010.3
20260830224609 82 107 1.0 6.0 0.00 0.00 0.00 72 1010.5
20260830223104 83 117 1.0 9.0 0.00 0.00 0.00 72 1010.6
20260830221600 83 104 1.0 8.0 0.00 0.00 0.00 71 1010.8
20260830220120 83 186 1.0 9.0 0.00 0.00 0.00 72 1010.9
20260830214605 82 106 2.0 8.0 0.00 0.00 0.00 73 1011.2
20260830213053 81 113 2.0 7.0 0.00 0.00 0.00 74 1011.4
20260830211604 82 112 2.0 7.0 0.00 0.00 0.00 74 1011.5
20260830210106 82 162 3.0 10.0 0.00 0.00 0.00 73 1011.7
20260830204600 83 0 1.0 11.0 0.00 0.00 0.00 72 1011.8
20260830203115 83 120 2.0 9.0 0.00 0.00 0.00 72 1011.7
20260830201601 82 0 3.0 9.0 0.00 0.00 0.00 73 1011.8
20260830200104 83 103 3.0 9.0 0.00 0.00 0.00 72 1011.7
20260830194559 83 161 2.0 9.0 0.00 0.00 0.00 72 1011.8
20260830193055 83 111 1.0 7.0 0.00 0.00 0.00 72 1011.8
20260830191601 83 125 1.0 8.0 0.00 0.00 0.00 72 1011.9
20260830190103 84 179 1.0 6.0 0.00 0.00 0.00 70 1012.1
20260830184613 83 0 2.0 9.0 0.00 0.00 0.00 71 1012.2
20260830183124 83 157 1.0 8.0 0.00 0.00 0.00 69 1012.1
20260830181623 84 155 1.0 5.0 0.00 0.00 0.00 67 1011.9
20260830180112 84 123 1.0 7.0 0.00 0.00 0.00 66 1012.2